| time (UTC) | temp C | wind direction | speed KPH | gust KPH | rain 1hr cm | rain 24hr cm | rain mn cm | humidity % | barometer mb |
| 20260906051947 | 13 | 38 | 0.0 | 0.0 | 0.00 | 0.00 | 0.00 | 97 | 1015.4 |
| 20260906051442 | 14 | 38 | 0.0 | 0.0 | 0.00 | 0.00 | 0.00 | 97 | 1015.5 |
| 20260906050937 | 14 | 38 | 0.0 | 0.0 | 0.00 | 0.00 | 0.00 | 97 | 1015.5 |
| 20260906050437 | 14 | 38 | 0.0 | 0.0 | 0.00 | 0.00 | 0.00 | 97 | 1015.2 |
| 20260906045936 | 15 | 38 | 0.0 | 0.0 | 0.00 | 0.00 | 0.00 | 97 | 1015.3 |
| 20260906045435 | 15 | 38 | 0.0 | 0.0 | 0.00 | 0.00 | 0.00 | 97 | 1015.4 |
| 20260906044931 | 15 | 38 | 0.0 | 0.0 | 0.00 | 0.00 | 0.00 | 97 | 1015.3 |
| 20260906044426 | 15 | 38 | 0.0 | 0.0 | 0.00 | 0.00 | 0.00 | 96 | 1015.1 |
| 20260906043922 | 15 | 38 | 0.0 | 0.0 | 0.00 | 0.00 | 0.00 | 96 | 1015.2 |
| 20260906043417 | 15 | 38 | 0.0 | 0.0 | 0.00 | 0.00 | 0.00 | 96 | 1015.5 |
| 20260906042913 | 15 | 38 | 0.0 | 0.0 | 0.00 | 0.00 | 0.00 | 96 | 1015.5 |
| 20260906042412 | 15 | 38 | 1.6 | 0.0 | 0.00 | 0.00 | 0.00 | 96 | 1015.4 |
| 20260906041907 | 15 | 38 | 0.0 | 1.6 | 0.00 | 0.00 | 0.00 | 95 | 1015.6 |
| 20260906041403 | 15 | 38 | 0.0 | 1.6 | 0.00 | 0.00 | 0.00 | 94 | 1015.5 |
| 20260906040903 | 15 | 38 | 0.0 | 0.0 | 0.00 | 0.00 | 0.00 | 93 | 1015.7 |
| 20260906040358 | 15 | 38 | 0.0 | 0.0 | 0.00 | 0.00 | 0.00 | 93 | 1015.6 |
| 20260906035853 | 15 | 39 | 0.0 | 0.0 | 0.00 | 0.03 | 0.03 | 93 | 1015.6 |
| 20260906035349 | 15 | 39 | 0.0 | 0.0 | 0.00 | 0.03 | 0.03 | 91 | 1015.5 |
| 20260906034843 | 15 | 39 | 0.0 | 0.0 | 0.00 | 0.03 | 0.03 | 91 | 1015.5 |
| 20260906034338 | 15 | 38 | 0.0 | 0.0 | 0.00 | 0.03 | 0.03 | 91 | 1015.5 |
| 20260906033834 | 15 | 38 | 0.0 | 0.0 | 0.00 | 0.03 | 0.03 | 90 | 1015.6 |
| 20260906033333 | 15 | 39 | 0.0 | 1.6 | 0.00 | 0.03 | 0.03 | 90 | 1015.6 |
| 20260906032830 | 15 | 38 | 0.0 | 0.0 | 0.00 | 0.03 | 0.03 | 90 | 1015.5 |
| 20260906032326 | 15 | 38 | 0.0 | 0.0 | 0.00 | 0.03 | 0.03 | 90 | 1015.5 |
| 20260906031821 | 15 | 38 | 0.0 | 1.6 | 0.00 | 0.03 | 0.03 | 90 | 1015.6 |
| 20260906031316 | 15 | 43 | 0.0 | 0.0 | 0.00 | 0.03 | 0.03 | 89 | 1015.7 |
| 20260906030815 | 16 | 43 | 0.0 | 0.0 | 0.00 | 0.03 | 0.03 | 89 | 1015.5 |
| 20260906030311 | 16 | 44 | 0.0 | 0.0 | 0.00 | 0.03 | 0.03 | 87 | 1015.4 |
| 20260906025810 | 16 | 44 | 0.0 | 0.0 | 0.00 | 0.03 | 0.03 | 87 | 1015.3 |
| 20260906025259 | 16 | 355 | 0.0 | 0.0 | 0.00 | 0.03 | 0.03 | 88 | 1015.5 |
| 20260906024758 | 16 | 354 | 0.0 | 0.0 | 0.00 | 0.03 | 0.03 | 91 | 1015.5 |
| 20260906024258 | 15 | 354 | 0.0 | 0.0 | 0.00 | 0.03 | 0.03 | 91 | 1015.6 |
| 20260906023753 | 16 | 354 | 0.0 | 0.0 | 0.00 | 0.03 | 0.03 | 90 | 1015.3 |
| 20260906023249 | 16 | 354 | 0.0 | 0.0 | 0.00 | 0.03 | 0.03 | 90 | 1015.3 |
| 20260906022744 | 16 | 354 | 0.0 | 0.0 | 0.00 | 0.03 | 0.03 | 90 | 1015.2 |
| 20260906022239 | 16 | 354 | 0.0 | 0.0 | 0.00 | 0.03 | 0.03 | 88 | 1015.4 |
| 20260906021736 | 16 | 354 | 0.0 | 0.0 | 0.00 | 0.03 | 0.03 | 88 | 1015.2 |
| 20260906021234 | 16 | 354 | 0.0 | 0.0 | 0.00 | 0.03 | 0.03 | 88 | 1015.3 |
| 20260906020729 | 16 | 354 | 1.6 | 1.6 | 0.00 | 0.03 | 0.03 | 88 | 1015.4 |
| 20260906020224 | 16 | 354 | 0.0 | 1.6 | 0.00 | 0.03 | 0.03 | 89 | 1015.2 |
| 20260906015724 | 16 | 353 | 0.0 | 1.6 | 0.00 | 0.03 | 0.03 | 90 | 1015.4 |
| 20260906015222 | 16 | 353 | 1.6 | 1.6 | 0.00 | 0.03 | 0.03 | 92 | 1015.1 |
| 20260906014716 | 16 | 353 | 0.0 | 0.0 | 0.00 | 0.03 | 0.03 | 92 | 1015.1 |
| 20260906014213 | 16 | 353 | 0.0 | 0.0 | 0.00 | 0.03 | 0.03 | 92 | 1015.1 |
| 20260906013708 | 16 | 353 | 0.0 | 0.0 | 0.00 | 0.03 | 0.03 | 91 | 1015.0 |
| 20260906013208 | 16 | 353 | 0.0 | 0.0 | 0.00 | 0.03 | 0.03 | 90 | 1015.0 |
| 20260906012703 | 16 | 353 | 0.0 | 0.0 | 0.00 | 0.03 | 0.03 | 89 | 1015.0 |
| 20260906012158 | 16 | 353 | 0.0 | 0.0 | 0.00 | 0.03 | 0.03 | 88 | 1015.2 |
| 20260906011654 | 16 | 353 | 0.0 | 0.0 | 0.00 | 0.03 | 0.03 | 87 | 1015.1 |
| 20260906011148 | 17 | 353 | 0.0 | 0.0 | 0.00 | 0.03 | 0.03 | 85 | 1015.0 |
| 20260906010644 | 17 | 353 | 0.0 | 0.0 | 0.00 | 0.03 | 0.03 | 84 | 1015.0 |
| 20260906010140 | 17 | 353 | 0.0 | 0.0 | 0.00 | 0.03 | 0.03 | 83 | 1014.9 |
| 20260906005639 | 17 | 353 | 0.0 | 0.0 | 0.00 | 0.03 | 0.03 | 80 | 1015.0 |
| 20260906005138 | 18 | 353 | 0.0 | 0.0 | 0.00 | 0.03 | 0.03 | 79 | 1015.0 |
| 20260906004638 | 18 | 353 | 0.0 | 0.0 | 0.00 | 0.03 | 0.03 | 78 | 1014.9 |
| 20260906004133 | 18 | 353 | 0.0 | 0.0 | 0.00 | 0.03 | 0.03 | 75 | 1014.8 |
| 20260906003628 | 18 | 38 | 0.0 | 1.6 | 0.00 | 0.03 | 0.03 | 74 | 1014.8 |
| 20260906003124 | 18 | 39 | 0.0 | 1.6 | 0.00 | 0.03 | 0.03 | 73 | 1014.7 |
| 20260906002619 | 19 | 39 | 0.0 | 0.0 | 0.00 | 0.03 | 0.03 | 72 | 1014.8 |
| 20260906002113 | 19 | 39 | 0.0 | 0.0 | 0.00 | 0.03 | 0.03 | 72 | 1014.7 |
| 20260906001608 | 20 | 39 | 0.0 | 1.6 | 0.00 | 0.03 | 0.03 | 68 | 1014.7 |
| 20260906001103 | 20 | 39 | 1.6 | 1.6 | 0.00 | 0.03 | 0.03 | 66 | 1014.7 |
| 20260906000559 | 20 | 39 | 1.6 | 6.4 | 0.00 | 0.03 | 0.03 | 65 | 1014.5 |
| 20260906000054 | 20 | 32 | 1.6 | 6.4 | 0.00 | 0.03 | 0.03 | 63 | 1014.7 |
| 20260905235553 | 21 | 358 | 8.0 | 8.0 | 0.00 | 0.03 | 0.03 | 63 | 1014.6 |
| 20260905235048 | 21 | 28 | 4.8 | 6.4 | 0.00 | 0.03 | 0.03 | 62 | 1014.5 |
| 20260905234544 | 21 | 343 | 3.2 | 6.4 | 0.00 | 0.03 | 0.03 | 62 | 1014.4 |
| 20260905234039 | 21 | 18 | 8.0 | 19.3 | 0.00 | 0.03 | 0.03 | 62 | 1014.6 |
| 20260905233538 | 21 | 34 | 4.8 | 8.0 | 0.00 | 0.03 | 0.03 | 63 | 1014.4 |
| 20260905233038 | 21 | 26 | 3.2 | 16.1 | 0.00 | 0.03 | 0.03 | 65 | 1014.4 |
| 20260905232534 | 21 | 30 | 8.0 | 11.3 | 0.00 | 0.03 | 0.03 | 67 | 1014.3 |
| 20260905232029 | 22 | 14 | 3.2 | 6.4 | 0.00 | 0.03 | 0.03 | 67 | 1014.2 |
| 20260905231524 | 22 | 50 | 1.6 | 8.0 | 0.00 | 0.03 | 0.03 | 67 | 1014.2 |
| 20260905231021 | 22 | 65 | 4.8 | 12.9 | 0.00 | 0.03 | 0.03 | 66 | 1014.1 |
| 20260905230520 | 22 | 61 | 14.5 | 17.7 | 0.00 | 0.03 | 0.03 | 65 | 1014.2 |
| 20260905230018 | 23 | 18 | 4.8 | 11.3 | 0.00 | 0.03 | 0.03 | 66 | 1014.0 |
| 20260905225513 | 23 | 40 | 12.9 | 17.7 | 0.00 | 0.03 | 0.03 | 65 | 1014.0 |
| 20260905225009 | 23 | 31 | 8.0 | 16.1 | 0.00 | 0.03 | 0.03 | 65 | 1014.0 |
| 20260905224504 | 23 | 56 | 6.4 | 12.9 | 0.00 | 0.03 | 0.03 | 66 | 1013.7 |
| 20260905224003 | 23 | 10 | 8.0 | 8.0 | 0.00 | 0.03 | 0.03 | 69 | 1013.7 |
| 20260905223501 | 23 | 42 | 8.0 | 11.3 | 0.00 | 0.03 | 0.03 | 69 | 1013.8 |
| 20260905222956 | 23 | 20 | 6.4 | 12.9 | 0.00 | 0.03 | 0.03 | 68 | 1013.7 |
| 20260905222456 | 23 | 344 | 6.4 | 8.0 | 0.00 | 0.03 | 0.03 | 69 | 1013.5 |
| 20260905221951 | 23 | 11 | 1.6 | 6.4 | 0.00 | 0.03 | 0.03 | 70 | 1013.7 |
| 20260905221447 | 23 | 347 | 4.8 | 8.0 | 0.00 | 0.03 | 0.03 | 71 | 1013.5 |
| 20260905220943 | 23 | 18 | 6.4 | 8.0 | 0.00 | 0.03 | 0.03 | 71 | 1013.5 |
| 20260905220439 | 23 | 52 | 8.0 | 12.9 | 0.00 | 0.03 | 0.03 | 70 | 1013.5 |
| 20260905215938 | 24 | 2 | 14.5 | 22.5 | 0.00 | 0.03 | 0.03 | 69 | 1013.3 |
| 20260905215434 | 24 | 6 | 11.3 | 16.1 | 0.00 | 0.03 | 0.03 | 71 | 1013.4 |
| 20260905214930 | 24 | 352 | 6.4 | 6.4 | 0.00 | 0.03 | 0.03 | 71 | 1013.3 |
| 20260905214426 | 25 | 35 | 4.8 | 8.0 | 0.00 | 0.03 | 0.03 | 70 | 1013.3 |
| 20260905213926 | 25 | 5 | 8.0 | 12.9 | 0.00 | 0.03 | 0.03 | 69 | 1013.2 |
| 20260905213422 | 25 | 70 | 1.6 | 16.1 | 0.00 | 0.03 | 0.03 | 70 | 1013.4 |
| 20260905212917 | 25 | 23 | 3.2 | 11.3 | 0.00 | 0.03 | 0.03 | 72 | 1013.1 |
| 20260905212412 | 24 | 31 | 6.4 | 11.3 | 0.00 | 0.03 | 0.03 | 72 | 1013.2 |
| 20260905211911 | 24 | 2 | 9.7 | 11.3 | 0.00 | 0.03 | 0.03 | 72 | 1013.2 |
| 20260905211407 | 24 | 43 | 8.0 | 16.1 | 0.00 | 0.03 | 0.03 | 72 | 1013.3 |
| 20260905210903 | 25 | 33 | 4.8 | 11.3 | 0.00 | 0.03 | 0.03 | 72 | 1013.2 |
| 20260905210357 | 25 | 24 | 3.2 | 4.8 | 0.00 | 0.03 | 0.03 | 72 | 1013.1 |
| 20260905205856 | 24 | 354 | 3.2 | 6.4 | 0.00 | 0.03 | 0.03 | 73 | 1013.1 |
| 20260905205351 | 24 | 37 | 3.2 | 8.0 | 0.00 | 0.03 | 0.03 | 73 | 1013.2 |
| 20260905204850 | 24 | 10 | 8.0 | 8.0 | 0.00 | 0.03 | 0.03 | 72 | 1013.2 |
| 20260905204347 | 24 | 4 | 6.4 | 8.0 | 0.00 | 0.03 | 0.03 | 72 | 1013.2 |
| 20260905203845 | 25 | 26 | 9.7 | 16.1 | 0.00 | 0.03 | 0.03 | 71 | 1013.3 |
| 20260905203341 | 25 | 84 | 4.8 | 6.4 | 0.00 | 0.03 | 0.03 | 70 | 1013.4 |
| 20260905202837 | 25 | 43 | 1.6 | 4.8 | 0.00 | 0.03 | 0.03 | 71 | 1013.4 |
| 20260905202331 | 25 | 74 | 3.2 | 6.4 | 0.00 | 0.03 | 0.03 | 72 | 1013.4 |
| 20260905201827 | 25 | 355 | 11.3 | 12.9 | 0.00 | 0.03 | 0.03 | 72 | 1013.3 |
| 20260905201323 | 25 | 44 | 3.2 | 11.3 | 0.00 | 0.03 | 0.03 | 71 | 1013.2 |
| 20260905200822 | 25 | 15 | 8.0 | 11.3 | 0.00 | 0.03 | 0.03 | 70 | 1013.4 |
| 20260905200318 | 25 | 35 | 8.0 | 11.3 | 0.00 | 0.03 | 0.03 | 69 | 1013.4 |
| 20260905195816 | 25 | 330 | 6.4 | 8.0 | 0.00 | 0.03 | 0.03 | 72 | 1013.3 |
| 20260905195311 | 25 | 52 | 4.8 | 6.4 | 0.00 | 0.03 | 0.03 | 69 | 1013.4 |
| 20260905194807 | 25 | 358 | 8.0 | 16.1 | 0.00 | 0.03 | 0.03 | 71 | 1013.5 |
| 20260905194301 | 25 | 31 | 4.8 | 8.0 | 0.00 | 0.03 | 0.03 | 72 | 1013.5 |
| 20260905193800 | 25 | 349 | 6.4 | 11.3 | 0.00 | 0.03 | 0.03 | 71 | 1013.7 |
| 20260905193255 | 25 | 23 | 8.0 | 11.3 | 0.00 | 0.03 | 0.03 | 71 | 1013.5 |
| 20260905192751 | 25 | 355 | 12.9 | 12.9 | 0.00 | 0.03 | 0.03 | 72 | 1013.4 |
| 20260905192247 | 25 | 328 | 9.7 | 12.9 | 0.00 | 0.03 | 0.03 | 72 | 1013.5 |
| 20260905191747 | 25 | 47 | 6.4 | 8.0 | 0.00 | 0.03 | 0.03 | 73 | 1013.7 |
| 20260905191245 | 24 | 38 | 6.4 | 8.0 | 0.00 | 0.03 | 0.03 | 74 | 1013.7 |
| 20260905190743 | 25 | 45 | 6.4 | 12.9 | 0.00 | 0.03 | 0.03 | 73 | 1013.8 |
| 20260905190243 | 25 | 43 | 8.0 | 12.9 | 0.00 | 0.03 | 0.03 | 72 | 1013.9 |
| 20260905185742 | 25 | 59 | 3.2 | 4.8 | 0.00 | 0.03 | 0.03 | 72 | 1013.8 |
| 20260905185237 | 25 | 3 | 4.8 | 6.4 | 0.00 | 0.03 | 0.03 | 73 | 1014.0 |
| 20260905184731 | 25 | 47 | 11.3 | 11.3 | 0.00 | 0.03 | 0.03 | 73 | 1014.0 |
| 20260905184230 | 25 | 9 | 14.5 | 16.1 | 0.00 | 0.03 | 0.03 | 72 | 1014.0 |
| 20260905183729 | 25 | 8 | 12.9 | 17.7 | 0.00 | 0.03 | 0.03 | 72 | 1014.1 |
| 20260905183225 | 25 | 33 | 8.0 | 17.7 | 0.00 | 0.03 | 0.03 | 75 | 1014.1 |
| 20260905182725 | 25 | 74 | 1.6 | 6.4 | 0.00 | 0.03 | 0.03 | 74 | 1013.9 |
| 20260905182224 | 25 | 61 | 4.8 | 8.0 | 0.00 | 0.03 | 0.03 | 73 | 1013.9 |
| 20260905181720 | 25 | 34 | 6.4 | 6.4 | 0.00 | 0.03 | 0.03 | 75 | 1014.0 |
| 20260905181218 | 24 | 67 | 3.2 | 8.0 | 0.00 | 0.03 | 0.03 | 76 | 1014.0 |
| 20260905180713 | 23 | 6 | 12.9 | 16.1 | 0.00 | 0.03 | 0.03 | 77 | 1014.0 |
| 20260905180209 | 24 | 359 | 9.7 | 16.1 | 0.00 | 0.03 | 0.03 | 77 | 1014.3 |
| 20260905175708 | 24 | 357 | 17.7 | 17.7 | 0.00 | 0.03 | 0.03 | 78 | 1014.2 |
| 20260905175203 | 24 | 35 | 8.0 | 12.9 | 0.00 | 0.03 | 0.03 | 78 | 1014.2 |
| 20260905174658 | 24 | 5 | 11.3 | 12.9 | 0.00 | 0.03 | 0.03 | 75 | 1014.1 |
| 20260905174154 | 23 | 355 | 6.4 | 11.3 | 0.00 | 0.03 | 0.03 | 79 | 1014.3 |
| 20260905173650 | 23 | 59 | 11.3 | 16.1 | 0.00 | 0.03 | 0.03 | 78 | 1014.4 |
| 20260905173145 | 23 | 26 | 11.3 | 17.7 | 0.00 | 0.03 | 0.03 | 79 | 1014.2 |
| 20260905172645 | 23 | 30 | 9.7 | 11.3 | 0.00 | 0.03 | 0.03 | 79 | 1014.5 |
| 20260905172139 | 23 | 42 | 3.2 | 6.4 | 0.00 | 0.03 | 0.03 | 80 | 1014.3 |
| 20260905171635 | 23 | 33 | 4.8 | 11.3 | 0.00 | 0.03 | 0.03 | 81 | 1014.4 |
| 20260905171131 | 23 | 46 | 4.8 | 8.0 | 0.00 | 0.03 | 0.03 | 80 | 1014.4 |
| 20260905170627 | 23 | 81 | 3.2 | 12.9 | 0.00 | 0.03 | 0.03 | 81 | 1014.3 |
| 20260905170123 | 24 | 45 | 9.7 | 12.9 | 0.00 | 0.03 | 0.03 | 79 | 1014.6 |
| 20260905165617 | 23 | 41 | 1.6 | 6.4 | 0.00 | 0.03 | 0.03 | 80 | 1014.3 |
| 20260905165112 | 23 | 52 | 8.0 | 11.3 | 0.00 | 0.03 | 0.03 | 82 | 1014.4 |
| 20260905164607 | 23 | 34 | 8.0 | 12.9 | 0.00 | 0.03 | 0.03 | 80 | 1014.5 |
| 20260905164101 | 23 | 40 | 4.8 | 6.4 | 0.00 | 0.03 | 0.03 | 79 | 1014.6 |
| 20260905163552 | 23 | 24 | 4.8 | 8.0 | 0.00 | 0.03 | 0.03 | 79 | 1014.5 |
| 20260905163048 | 23 | 47 | 3.2 | 6.4 | 0.00 | 0.03 | 0.03 | 81 | 1014.6 |
| 20260905162544 | 23 | 19 | 3.2 | 4.8 | 0.00 | 0.03 | 0.03 | 81 | 1014.6 |
| 20260905162043 | 23 | 11 | 4.8 | 8.0 | 0.00 | 0.03 | 0.03 | 80 | 1014.6 |
| 20260905161543 | 23 | 4 | 11.3 | 12.9 | 0.00 | 0.03 | 0.03 | 79 | 1014.6 |
| 20260905161041 | 23 | 1 | 8.0 | 11.3 | 0.00 | 0.03 | 0.03 | 81 | 1014.6 |
| 20260905160539 | 23 | 23 | 4.8 | 8.0 | 0.00 | 0.03 | 0.03 | 80 | 1014.6 |
| 20260905160034 | 23 | 89 | 3.2 | 11.3 | 0.00 | 0.03 | 0.03 | 80 | 1014.7 |
| 20260905155534 | 23 | 95 | 4.8 | 6.4 | 0.00 | 0.03 | 0.03 | 80 | 1014.8 |
| 20260905155033 | 23 | 37 | 4.8 | 8.0 | 0.00 | 0.03 | 0.03 | 80 | 1014.8 |
| 20260905154528 | 23 | 351 | 6.4 | 8.0 | 0.00 | 0.03 | 0.03 | 82 | 1014.6 |
| 20260905154024 | 23 | 8 | 6.4 | 6.4 | 0.00 | 0.03 | 0.03 | 83 | 1014.7 |
| 20260905153520 | 23 | 31 | 8.0 | 8.0 | 0.00 | 0.03 | 0.03 | 82 | 1014.8 |
| 20260905153019 | 23 | 6 | 3.2 | 4.8 | 0.00 | 0.03 | 0.03 | 82 | 1014.9 |
| 20260905152519 | 23 | 59 | 1.6 | 4.8 | 0.00 | 0.03 | 0.03 | 82 | 1014.7 |
| 20260905152015 | 23 | 0 | 1.6 | 4.8 | 0.00 | 0.03 | 0.03 | 84 | 1014.5 |
| 20260905151510 | 23 | 34 | 3.2 | 4.8 | 0.00 | 0.03 | 0.03 | 83 | 1014.4 |
| 20260905151005 | 23 | 34 | 3.2 | 1.6 | 0.00 | 0.03 | 0.03 | 84 | 1014.5 |
| 20260905150500 | 23 | 34 | 0.0 | 1.6 | 0.00 | 0.03 | 0.03 | 83 | 1014.3 |
| 20260905145956 | 23 | 33 | 0.0 | 0.0 | 0.00 | 0.03 | 0.03 | 83 | 1014.5 |
| 20260905145451 | 23 | 12 | 0.0 | 0.0 | 0.00 | 0.03 | 0.03 | 84 | 1014.3 |
| 20260905144950 | 23 | 12 | 0.0 | 1.6 | 0.00 | 0.03 | 0.03 | 84 | 1014.3 |
| 20260905144446 | 23 | 11 | 0.0 | 1.6 | 0.00 | 0.03 | 0.03 | 86 | 1014.3 |
| 20260905143945 | 23 | 51 | 1.6 | 1.6 | 0.00 | 0.03 | 0.03 | 86 | 1014.1 |
| 20260905143444 | 23 | 69 | 3.2 | 1.6 | 0.00 | 0.03 | 0.03 | 87 | 1014.1 |
| 20260905142939 | 22 | 40 | 1.6 | 4.8 | 0.00 | 0.03 | 0.03 | 89 | 1014.1 |
| 20260905142438 | 22 | 22 | 4.8 | 6.4 | 0.00 | 0.03 | 0.03 | 89 | 1014.3 |
| 20260905141933 | 22 | 37 | 1.6 | 1.6 | 0.00 | 0.03 | 0.03 | 91 | 1014.1 |
| 20260905141428 | 22 | 37 | 3.2 | 4.8 | 0.00 | 0.03 | 0.03 | 93 | 1014.1 |
| 20260905140924 | 21 | 33 | 4.8 | 4.8 | 0.00 | 0.03 | 0.03 | 97 | 1014.1 |
| 20260905140420 | 21 | 69 | 3.2 | 4.8 | 0.00 | 0.03 | 0.03 | 99 | 1014.0 |
| 20260905135918 | 21 | 27 | 4.8 | 4.8 | 0.00 | 0.03 | 0.03 | 99 | 1014.0 |
| 20260905135414 | 21 | 23 | 1.6 | 4.8 | 0.00 | 0.03 | 0.03 | 99 | 1014.1 |
| 20260905134909 | 21 | 13 | 4.8 | 8.0 | 0.00 | 0.03 | 0.03 | 99 | 1014.1 |
| 20260905134408 | 21 | 23 | 4.8 | 6.4 | 0.00 | 0.03 | 0.03 | 99 | 1014.0 |
| 20260905133903 | 20 | 22 | 4.8 | 4.8 | 0.00 | 0.03 | 0.03 | 99 | 1014.1 |
| 20260905133358 | 20 | 23 | 1.6 | 1.6 | 0.00 | 0.03 | 0.03 | 99 | 1014.3 |
| 20260905132857 | 20 | 22 | 1.6 | 1.6 | 0.00 | 0.03 | 0.03 | 99 | 1014.4 |
| 20260905132352 | 20 | 22 | 0.0 | 0.0 | 0.00 | 0.03 | 0.03 | 99 | 1014.2 |
| 20260905131846 | 20 | 22 | 0.0 | 0.0 | 0.00 | 0.03 | 0.03 | 99 | 1014.4 |
| 20260905131342 | 20 | 22 | 1.6 | 1.6 | 0.00 | 0.03 | 0.03 | 99 | 1014.6 |
| 20260905130837 | 20 | 23 | 0.0 | 0.0 | 0.00 | 0.03 | 0.03 | 99 | 1014.8 |
| 20260905130336 | 20 | 22 | 0.0 | 0.0 | 0.00 | 0.03 | 0.03 | 99 | 1014.5 |
| 20260905125831 | 20 | 22 | 0.0 | 0.0 | 0.00 | 0.03 | 0.03 | 99 | 1014.6 |
| 20260905125326 | 20 | 23 | 0.0 | 0.0 | 0.00 | 0.03 | 0.03 | 99 | 1014.5 |
| 20260905124822 | 20 | 23 | 1.6 | 1.6 | 0.00 | 0.03 | 0.03 | 99 | 1014.6 |
| 20260905124318 | 20 | 21 | 3.2 | 1.6 | 0.00 | 0.03 | 0.03 | 99 | 1014.6 |
| 20260905123813 | 20 | 15 | 0.0 | 0.0 | 0.00 | 0.03 | 0.03 | 99 | 1014.6 |
| 20260905123310 | 20 | 15 | 0.0 | 0.0 | 0.00 | 0.03 | 0.03 | 99 | 1014.5 |
| 20260905122809 | 20 | 15 | 0.0 | 0.0 | 0.00 | 0.03 | 0.03 | 99 | 1014.6 |
| 20260905122309 | 20 | 15 | 0.0 | 0.0 | 0.00 | 0.03 | 0.03 | 99 | 1014.7 |
| 20260905121805 | 20 | 15 | 0.0 | 0.0 | 0.00 | 0.03 | 0.03 | 99 | 1014.6 |
| 20260905121301 | 20 | 15 | 0.0 | 1.6 | 0.00 | 0.03 | 0.03 | 99 | 1014.5 |
| 20260905120759 | 20 | 14 | 0.0 | 1.6 | 0.00 | 0.03 | 0.03 | 99 | 1014.5 |
| 20260905120300 | 20 | 14 | 0.0 | 0.0 | 0.00 | 0.03 | 0.03 | 99 | 1014.5 |
| 20260905115754 | 20 | 14 | 0.0 | 1.6 | 0.00 | 0.03 | 0.03 | 99 | 1014.5 |
| 20260905115249 | 20 | 15 | 0.0 | 0.0 | 0.00 | 0.03 | 0.03 | 99 | 1014.2 |
| 20260905114748 | 19 | 15 | 0.0 | 1.6 | 0.00 | 0.03 | 0.03 | 99 | 1014.4 |
| 20260905114247 | 19 | 343 | 0.0 | 0.0 | 0.00 | 0.03 | 0.03 | 99 | 1014.2 |
| 20260905113746 | 19 | 343 | 0.0 | 0.0 | 0.00 | 0.03 | 0.03 | 99 | 1014.3 |
| 20260905113243 | 19 | 343 | 0.0 | 1.6 | 0.00 | 0.03 | 0.03 | 99 | 1014.3 |
| 20260905112737 | 19 | 343 | 0.0 | 1.6 | 0.00 | 0.03 | 0.03 | 99 | 1014.0 |
| 20260905112232 | 19 | 343 | 0.0 | 0.0 | 0.00 | 0.03 | 0.03 | 99 | 1013.9 |
| 20260905111727 | 19 | 343 | 1.6 | 1.6 | 0.00 | 0.03 | 0.03 | 99 | 1014.1 |
| 20260905111221 | 19 | 342 | 0.0 | 1.6 | 0.00 | 0.03 | 0.03 | 99 | 1014.1 |
| 20260905110720 | 19 | 342 | 0.0 | 0.0 | 0.00 | 0.03 | 0.03 | 99 | 1014.2 |
| 20260905110215 | 19 | 341 | 1.6 | 1.6 | 0.00 | 0.03 | 0.03 | 99 | 1014.1 |
| 20260905105711 | 19 | 341 | 0.0 | 0.0 | 0.00 | 0.03 | 0.03 | 99 | 1014.0 |
| 20260905105209 | 19 | 341 | 0.0 | 0.0 | 0.00 | 0.03 | 0.03 | 99 | 1014.2 |
| 20260905104704 | 19 | 341 | 0.0 | 0.0 | 0.00 | 0.03 | 0.03 | 99 | 1014.2 |
| 20260905104200 | 19 | 341 | 0.0 | 0.0 | 0.13 | 0.03 | 0.03 | 99 | 1014.5 |
| 20260905103655 | 19 | 341 | 0.0 | 0.0 | 0.13 | 0.03 | 0.03 | 99 | 1014.5 |
| 20260905103151 | 19 | 339 | 1.6 | 1.6 | 0.00 | 0.00 | 0.00 | 99 | 1014.6 |
| 20260905102646 | 19 | 338 | 0.0 | 0.0 | 0.00 | 0.00 | 0.00 | 99 | 1014.7 |
| 20260905102143 | 19 | 338 | 0.0 | 0.0 | 0.00 | 0.00 | 0.00 | 99 | 1014.6 |
| 20260905101641 | 19 | 338 | 0.0 | 0.0 | 0.00 | 0.00 | 0.00 | 99 | 1014.7 |
| 20260905101140 | 19 | 338 | 0.0 | 0.0 | 0.00 | 0.00 | 0.00 | 99 | 1014.5 |
| 20260905100636 | 19 | 337 | 0.0 | 1.6 | 0.00 | 0.00 | 0.00 | 99 | 1014.5 |
| 20260905100131 | 19 | 30 | 1.6 | 1.6 | 0.00 | 0.00 | 0.00 | 99 | 1014.3 |
| 20260905095624 | 19 | 30 | 0.0 | 0.0 | 0.00 | 0.00 | 0.00 | 99 | 1014.1 |
| 20260905095120 | 19 | 30 | 1.6 | 1.6 | 0.00 | 0.00 | 0.00 | 99 | 1013.9 |
| 20260905094615 | 20 | 30 | 0.0 | 1.6 | 0.00 | 0.00 | 0.00 | 99 | 1014.0 |
| 20260905094114 | 20 | 30 | 0.0 | 0.0 | 0.00 | 0.00 | 0.00 | 99 | 1013.9 |
| 20260905093614 | 20 | 30 | 0.0 | 0.0 | 0.00 | 0.00 | 0.00 | 99 | 1013.9 |
| 20260905093111 | 20 | 30 | 0.0 | 0.0 | 0.00 | 0.00 | 0.00 | 99 | 1013.9 |
| 20260905092610 | 20 | 30 | 1.6 | 1.6 | 0.00 | 0.00 | 0.00 | 99 | 1013.7 |
| 20260905092107 | 19 | 30 | 0.0 | 0.0 | 0.00 | 0.00 | 0.00 | 99 | 1013.5 |
| 20260905091606 | 19 | 30 | 0.0 | 1.6 | 0.00 | 0.00 | 0.00 | 99 | 1013.4 |
| 20260905091100 | 19 | 30 | 0.0 | 0.0 | 0.00 | 0.00 | 0.00 | 99 | 1013.2 |
| 20260905090554 | 19 | 30 | 1.6 | 1.6 | 0.00 | 0.00 | 0.00 | 99 | 1013.5 |
| 20260905090050 | 19 | 30 | 0.0 | 0.0 | 0.00 | 0.00 | 0.00 | 99 | 1013.7 |
| 20260905085548 | 19 | 30 | 0.0 | 0.0 | 0.00 | 0.00 | 0.00 | 99 | 1013.8 |
| 20260905085044 | 19 | 30 | 0.0 | 0.0 | 0.00 | 0.00 | 0.00 | 99 | 1013.8 |
| 20260905084543 | 19 | 30 | 0.0 | 0.0 | 0.00 | 0.00 | 0.00 | 99 | 1013.4 |
| 20260905084039 | 19 | 30 | 0.0 | 0.0 | 0.00 | 0.00 | 0.00 | 99 | 1013.5 |
| 20260905083533 | 18 | 30 | 0.0 | 1.6 | 0.00 | 0.00 | 0.00 | 99 | 1013.0 |
| 20260905083030 | 18 | 30 | 0.0 | 0.0 | 0.00 | 0.00 | 0.00 | 99 | 1013.2 |
| 20260905082525 | 18 | 30 | 1.6 | 1.6 | 0.00 | 0.00 | 0.00 | 99 | 1013.0 |
| 20260905082021 | 18 | 30 | 0.0 | 0.0 | 0.00 | 0.00 | 0.00 | 99 | 1012.9 |
| 20260905081515 | 18 | 30 | 1.6 | 1.6 | 0.00 | 0.00 | 0.00 | 99 | 1012.9 |
| 20260905081015 | 18 | 30 | 0.0 | 0.0 | 0.00 | 0.00 | 0.00 | 99 | 1013.3 |
| 20260905080509 | 18 | 30 | 0.0 | 0.0 | 0.00 | 0.00 | 0.00 | 99 | 1013.4 |
| 20260905080004 | 18 | 30 | 0.0 | 0.0 | 0.00 | 0.00 | 0.00 | 99 | 1013.4 |
| 20260905075457 | 18 | 30 | 0.0 | 0.0 | 0.00 | 0.00 | 0.00 | 99 | 1013.3 |
| 20260905074955 | 18 | 30 | 0.0 | 0.0 | 0.00 | 0.00 | 0.00 | 99 | 1013.3 |
| 20260905074452 | 18 | 30 | 0.0 | 0.0 | 0.00 | 0.00 | 0.00 | 99 | 1013.2 |
| 20260905073947 | 18 | 30 | 0.0 | 0.0 | 0.00 | 0.00 | 0.00 | 99 | 1013.4 |
| 20260905073442 | 18 | 30 | 0.0 | 0.0 | 0.00 | 0.00 | 0.00 | 99 | 1013.4 |
| 20260905072938 | 18 | 30 | 0.0 | 0.0 | 0.00 | 0.00 | 0.00 | 99 | 1013.2 |
| 20260905072432 | 18 | 30 | 0.0 | 0.0 | 0.00 | 0.00 | 0.00 | 99 | 1013.3 |
| 20260905071928 | 18 | 30 | 0.0 | 0.0 | 0.00 | 0.00 | 0.00 | 99 | 1013.5 |
| 20260905071426 | 18 | 30 | 0.0 | 0.0 | 0.00 | 0.00 | 0.00 | 99 | 1013.5 |
| 20260905070924 | 18 | 30 | 0.0 | 0.0 | 0.00 | 0.00 | 0.00 | 99 | 1013.5 |
| 20260905070421 | 18 | 30 | 0.0 | 0.0 | 0.00 | 0.00 | 0.00 | 99 | 1013.2 |
| 20260905065920 | 18 | 30 | 0.0 | 0.0 | 0.00 | 0.00 | 0.00 | 99 | 1013.4 |
| 20260905065418 | 18 | 30 | 0.0 | 0.0 | 0.00 | 0.00 | 0.00 | 99 | 1013.7 |
| 20260905064914 | 18 | 30 | 0.0 | 0.0 | 0.00 | 0.00 | 0.00 | 99 | 1013.7 |
| 20260905064409 | 19 | 30 | 0.0 | 0.0 | 0.00 | 0.00 | 0.00 | 99 | 1013.7 |
| 20260905063908 | 19 | 30 | 0.0 | 0.0 | 0.00 | 0.00 | 0.00 | 99 | 1013.9 |
| 20260905063404 | 19 | 30 | 0.0 | 0.0 | 0.00 | 0.00 | 0.00 | 99 | 1014.0 |
| 20260905062900 | 19 | 30 | 0.0 | 1.6 | 0.00 | 0.00 | 0.00 | 99 | 1014.0 |
| 20260905062354 | 19 | 30 | 1.6 | 1.6 | 0.00 | 0.00 | 0.00 | 99 | 1014.1 |
| 20260905061849 | 19 | 30 | 0.0 | 0.0 | 0.00 | 0.00 | 0.00 | 99 | 1014.1 |
| 20260905061343 | 19 | 30 | 0.0 | 0.0 | 0.00 | 0.00 | 0.00 | 99 | 1014.1 |
| 20260905060838 | 19 | 30 | 0.0 | 0.0 | 0.00 | 0.00 | 0.00 | 99 | 1014.1 |
| 20260905060335 | 19 | 30 | 0.0 | 1.6 | 0.00 | 0.00 | 0.00 | 99 | 1014.3 |
| 20260905055833 | 19 | 30 | 0.0 | 0.0 | 0.00 | 0.00 | 0.00 | 99 | 1014.3 |
| 20260905055328 | 19 | 30 | 0.0 | 0.0 | 0.00 | 0.00 | 0.00 | 99 | 1014.4 |
| 20260905054828 | 19 | 30 | 0.0 | 0.0 | 0.00 | 0.00 | 0.00 | 99 | 1014.7 |
| 20260905054325 | 19 | 30 | 0.0 | 0.0 | 0.00 | 0.00 | 0.00 | 99 | 1014.7 |
| 20260905053824 | 19 | 30 | 0.0 | 0.0 | 0.00 | 0.00 | 0.00 | 99 | 1014.5 |
| 20260905053319 | 19 | 30 | 0.0 | 0.0 | 0.00 | 0.00 | 0.00 | 99 | 1014.6 |
| 20260905052814 | 19 | 30 | 0.0 | 0.0 | 0.00 | 0.00 | 0.00 | 99 | 1014.7 |